Location: Cheching
(60.0667°N, 164.2167°W)
Time: 20:58:35
(UTC+00:00)

NOAA 15 - Pass Details

Date: 01 February 2021
Orbit: 798 x 812 km, 98.7° (Epoch: 07 March)

Event Time Altitude Azimuth Distance (km) Brightness Sun altitude
Rises 04:24:18 0° 139° (SE) 3,314 7.6 -9.1°
Reaches altitude 10° 04:26:40 10° 135° (SE) 2,389 6.8 -9.4°
Maximum altitude 04:31:46 51° 61° (ENE) 1,021 4.8 -10.0°
Drops below altitude 10° 04:36:54 10° 347° (NNW) 2,411 7.1 -10.6°
Sets 04:39:18 0° 343° (NNW) 3,348 7.8 -10.9°
